World > North America > United States > Ohio > Little London  

Little London, OH Hourly Weather Updates

Feedback E-mail the Weather

Quick Clicks

Little London, OH Weather Maps

°F °C°F °C
Little London Weather Map
UTC Time: 6/24/2024, 07:58
Your Time:

Little London, OH Regional Weather

Expires:202406240800;;564006
ASUS41 KCLE 240712
RWRCLE
OHIO REGIONAL WEATHER ROUNDUP
NATIONAL WEATHER SERVICE WILMINGTON, OH
300 AM EDT MON JUN 24 2024

NOTE: "FAIR" INDICATES FEW OR NO CLOUDS BELOW 12,000 FEET WITH NO
SIGNIFICANT WEATHER AND/OR OBSTRUCTIONS TO VISIBILITY.


OHZ009>014-019>023-028>033-038-089-240800-
   NORTHEAST OHIO
  
CITY           SKY/WX    TMP DP  RH WIND       PRES   REMARKS
CLE-HOPKINS    CLOUDY    69  59  70 N9        29.82R                  
CLE-LAKEFRONT  CLOUDY    72  58  61 N9        29.82R                  
CUY CO. ARPT   CLOUDY    67  58  73 N6        29.84R                  
LORAIN-ELYRIA  CLOUDY    69  58  67 NE8       29.84R                  
ASHTABULA      MOCLDY    65  58  78 NW5       29.80R                  
AKRON-CANTON   FAIR      65  58  78 NW5       29.82R                  
WOOSTER        MOCLDY    67  63  87 N6        29.83R                  
MANSFIELD      CLOUDY    68  62  81 W5        29.84S                  
YOUNGSTOWN     MOCLDY    64  59  83 W7        29.81R                  
$$
 

SKY/WX - Weather  TMP - Temperature  DP - Dew Point  RH - Humidity
WIND - Wind Direction/Speed PRES - Barometric Pressure VSB - Visibility
WCI - Wind Chill Index E13G22 Wind - East Wind 13 mph/Gusts of 22 mph

Trending Headlines

Trending Entertainment Headlines

Little London Radar Loop

Use the map search tool if you want to place a location marker on the radar map...

Little London Quick Facts

National Two Day Weather Forecast


E-mail the Little London Weather Forecast

Voice your opinion or tell us about page issues...